TimeMDT,TemperatureF,Dew PointF,Humidity,Sea Level PressureIn,VisibilityMPH,Wind Direction,Wind SpeedMPH,Gust SpeedMPH,PrecipitationIn,Events,Conditions,WindDirDegrees,DateUTC
12:00 AM,32.0,-9999,N/A,30.11,10.0,South,4.6,-,N/A,,Clear,190,2012-10-08 06:00:00
12:20 AM,32.0,-9999,N/A,30.10,10.0,SW,10.4,-,N/A,,Clear,220,2012-10-08 06:20:00
12:40 AM,35.6,-9999,N/A,30.10,10.0,SW,4.6,-,N/A,,Clear,220,2012-10-08 06:40:00
1:00 AM,30.2,-9999,N/A,30.10,10.0,NE,4.6,-,N/A,,Clear,40,2012-10-08 07:00:00
1:20 AM,28.4,-9999,N/A,30.10,10.0,Calm,Calm,-,N/A,,Clear,0,2012-10-08 07:20:00
1:40 AM,26.6,-9999,N/A,30.11,10.0,North,3.5,-,N/A,,Clear,360,2012-10-08 07:40:00
2:00 AM,26.6,-9999,N/A,30.10,10.0,Calm,Calm,-,N/A,,Clear,0,2012-10-08 08:00:00
2:20 AM,26.6,-9999,N/A,30.10,10.0,Calm,Calm,-,N/A,,Clear,0,2012-10-08 08:20:00
2:40 AM,26.6,-9999,N/A,30.10,10.0,Calm,Calm,-,N/A,,Clear,0,2012-10-08 08:40:00
3:00 AM,24.8,-9999,N/A,30.10,10.0,Calm,Calm,-,N/A,,Clear,0,2012-10-08 09:00:00
3:20 AM,24.8,-9999,N/A,30.10,10.0,Calm,Calm,-,N/A,,Clear,0,2012-10-08 09:20:00
3:40 AM,23.0,-9999,N/A,30.09,10.0,Calm,Calm,-,N/A,,Clear,0,2012-10-08 09:40:00
4:00 AM,21.2,-9999,N/A,30.09,10.0,Calm,Calm,-,N/A,,Clear,0,2012-10-08 10:00:00
4:20 AM,21.2,-9999,N/A,30.08,10.0,Calm,Calm,-,N/A,,Clear,0,2012-10-08 10:20:00
4:40 AM,19.4,-9999,N/A,30.08,10.0,Calm,Calm,-,N/A,,Clear,0,2012-10-08 10:40:00
5:00 AM,19.4,-9999,N/A,30.08,10.0,Calm,Calm,-,N/A,,Clear,0,2012-10-08 11:00:00
5:20 AM,17.6,-9999,N/A,30.09,10.0,ENE,3.5,-,N/A,,Clear,60,2012-10-08 11:20:00
5:40 AM,17.6,-9999,N/A,30.09,10.0,SW,3.5,-,N/A,,Clear,230,2012-10-08 11:40:00
6:00 AM,17.6,-9999,N/A,30.08,10.0,Calm,Calm,-,N/A,,Clear,0,2012-10-08 12:00:00
6:20 AM,17.6,-9999,N/A,30.08,10.0,NE,3.5,-,N/A,,Clear,40,2012-10-08 12:20:00
6:40 AM,15.8,-9999,N/A,30.08,10.0,Calm,Calm,-,N/A,,Clear,0,2012-10-08 12:40:00
7:00 AM,15.8,-9999,N/A,30.08,10.0,Calm,Calm,-,N/A,,Clear,0,2012-10-08 13:00:00
7:20 AM,15.8,-9999,N/A,30.09,10.0,Calm,Calm,-,N/A,,Clear,0,2012-10-08 13:20:00
7:35 AM,15.8,-9999,N/A,30.08,10.0,Calm,Calm,-,N/A,,Clear,0,2012-10-08 13:35:00
8:00 AM,15.8,-9999,N/A,30.09,10.0,Calm,Calm,-,N/A,,Clear,0,2012-10-08 14:00:00
8:20 AM,15.8,-9999,N/A,30.10,10.0,Calm,Calm,-,N/A,,Clear,0,2012-10-08 14:20:00
8:40 AM,19.4,-9999,N/A,30.10,10.0,Calm,Calm,-,N/A,,Clear,0,2012-10-08 14:40:00
9:00 AM,24.8,-9999,N/A,30.10,10.0,Calm,Calm,-,N/A,,Clear,0,2012-10-08 15:00:00
9:20 AM,28.4,-9999,N/A,30.08,10.0,Calm,Calm,-,N/A,,Clear,0,2012-10-08 15:20:00
9:40 AM,30.2,-9999,N/A,30.07,10.0,Calm,Calm,-,N/A,,Clear,0,2012-10-08 15:40:00
10:00 AM,32.0,-9999,N/A,30.07,10.0,NE,8.1,-,N/A,,Clear,40,2012-10-08 16:00:00
10:20 AM,35.6,-9999,N/A,30.07,10.0,Calm,Calm,-,N/A,,Clear,0,2012-10-08 16:20:00
10:40 AM,37.4,-9999,N/A,30.06,10.0,NNE,4.6,-,N/A,,Clear,20,2012-10-08 16:40:00
11:00 AM,42.8,-9999,N/A,30.05,10.0,SW,3.5,-,N/A,,Clear,220,2012-10-08 17:00:00
11:40 AM,46.4,-9999,N/A,30.04,10.0,SW,12.7,18.4,N/A,,Clear,230,2012-10-08 17:40:00
12:00 PM,46.4,-9999,N/A,30.03,10.0,SW,19.6,26.5,N/A,,Clear,220,2012-10-08 18:00:00
12:20 PM,48.2,-9999,N/A,30.02,10.0,SSW,18.4,24.2,N/A,,Clear,210,2012-10-08 18:20:00
12:40 PM,48.2,-9999,N/A,30.02,10.0,SSW,21.9,26.5,N/A,,Clear,210,2012-10-08 18:40:00
1:00 PM,50.0,-9999,N/A,30.01,10.0,SSW,17.3,25.3,N/A,,Clear,200,2012-10-08 19:00:00
1:20 PM,50.0,-9999,N/A,29.99,10.0,SW,18.4,27.6,N/A,,Clear,220,2012-10-08 19:20:00
1:40 PM,51.8,-9999,N/A,29.98,10.0,SW,18.4,26.5,N/A,,Clear,220,2012-10-08 19:40:00
2:00 PM,51.8,-9999,N/A,29.98,10.0,SW,13.8,23.0,N/A,,Clear,230,2012-10-08 20:00:00
2:20 PM,51.8,-9999,N/A,29.97,10.0,SW,20.7,26.5,N/A,,Clear,220,2012-10-08 20:20:00
2:40 PM,51.8,-9999,N/A,29.97,10.0,SSW,21.9,28.8,N/A,,Clear,200,2012-10-08 20:40:00
2:55 PM,51.8,-9999,N/A,29.96,10.0,SSW,19.6,27.6,N/A,,Clear,210,2012-10-08 20:55:00
3:20 PM,51.8,-9999,N/A,29.96,10.0,SW,20.7,25.3,N/A,,Clear,220,2012-10-08 21:20:00
3:40 PM,53.6,-9999,N/A,29.96,10.0,SSW,21.9,28.8,N/A,,Clear,200,2012-10-08 21:40:00
3:55 PM,53.6,-9999,N/A,29.95,10.0,SSW,21.9,27.6,N/A,,Clear,200,2012-10-08 21:55:00
4:20 PM,53.6,-9999,N/A,29.94,10.0,SW,20.7,27.6,N/A,,Clear,220,2012-10-08 22:20:00
4:35 PM,53.6,-9999,N/A,29.94,10.0,SW,19.6,34.5,N/A,,Clear,220,2012-10-08 22:35:00
4:55 PM,51.8,-9999,N/A,29.94,10.0,SSW,17.3,29.9,N/A,,Clear,210,2012-10-08 22:55:00
5:15 PM,50.0,-9999,N/A,29.94,10.0,SSW,18.4,25.3,N/A,,Clear,210,2012-10-08 23:15:00
5:35 PM,50.0,-9999,N/A,29.94,10.0,SSW,23.0,28.8,N/A,,Clear,210,2012-10-08 23:35:00
6:00 PM,50.0,-9999,N/A,29.94,10.0,SSW,20.7,27.6,N/A,,Clear,210,2012-10-09 00:00:00
6:20 PM,48.2,-9999,N/A,29.95,10.0,SSW,19.6,27.6,N/A,,Clear,210,2012-10-09 00:20:00
6:40 PM,48.2,-9999,N/A,29.95,10.0,SSW,18.4,23.0,N/A,,Clear,210,2012-10-09 00:40:00
7:00 PM,46.4,-9999,N/A,29.96,10.0,SW,13.8,23.0,N/A,,Clear,220,2012-10-09 01:00:00
7:20 PM,46.4,-9999,N/A,29.96,10.0,SSW,15.0,19.6,N/A,,Clear,210,2012-10-09 01:20:00
7:40 PM,46.4,-9999,N/A,29.96,10.0,SSW,9.2,-,N/A,,Clear,210,2012-10-09 01:40:00
7:55 PM,44.6,-9999,N/A,29.97,10.0,SW,10.4,-,N/A,,Clear,220,2012-10-09 01:55:00
8:20 PM,44.6,-9999,N/A,29.96,10.0,SSW,9.2,-,N/A,,Clear,210,2012-10-09 02:20:00
8:40 PM,42.8,-9999,N/A,29.97,10.0,SSW,9.2,-,N/A,,Clear,210,2012-10-09 02:40:00
9:00 PM,41.0,-9999,N/A,29.98,10.0,SW,6.9,-,N/A,,Clear,220,2012-10-09 03:00:00
9:40 PM,35.6,-9999,N/A,29.99,10.0,Calm,Calm,-,N/A,,Clear,0,2012-10-09 03:40:00
10:20 PM,30.2,-9999,N/A,29.99,10.0,SSW,4.6,-,N/A,,Clear,210,2012-10-09 04:20:00
10:40 PM,28.4,-9999,N/A,29.99,10.0,Calm,Calm,-,N/A,,Clear,0,2012-10-09 04:40:00
11:00 PM,26.6,-9999,N/A,29.99,10.0,Calm,Calm,-,N/A,,Clear,0,2012-10-09 05:00:00
11:20 PM,26.6,-9999,N/A,29.99,10.0,ENE,3.5,-,N/A,,Clear,60,2012-10-09 05:20:00
11:40 PM,28.4,-9999,N/A,30.00,10.0,NE,3.5,-,N/A,,Clear,40,2012-10-09 05:40:00